Temperature
18 18 18 18 18 18 18 18 18 18 18 18 18 18 18 18 18 18 18 18 18 18 18 17 17 17 17 17 17 17 17 16 16 16 16 16 16 16 16 16 16 16 15
18 18 18 18 18 18 18 18 18 18 18 18 18 18 18 18 18 18 18 18 18 18 17 17 17 17 17 17 17 17 17 16 16 16 16 16 16 16 16 16 15 15 15
18 18 18 18 18 18 18 18 18 18 18 18 18 18 18 18 18 18 18 18 18 17 17 17 17 17 17 17 17 16 16 16 16 16 16 16 16 16 16 16 15 15 15
19 18 18 18 18 18 18 18 18 18 18 18 18 18 18 18 18 18 18 17 17 17 17 17 17 17 17 16 16 16 16 16 16 16 16 16 16 16 16 15 15 15 15
19 19 19 18 18 18 18 18 18 18 18 18 18 18 18 18 18 17 17 17 17 17 17 17 17 17 16 16 16 16 16 16 16 16 16 16 16 15 15 15 15 15 15
19 18 18 18 18 18 18 18 18 18 18 18 18 18 18 18 18 17 17 17 17 17 17 17 17 16 16 16 16 16 16 16 16 16 15 15 15 15 15 15 15 15 15
19 18 18 18 18 18 18 18 18 18 18 18 18 17 17 17 17 17 17 17 17 17 17 16 16 16 16 16 16 16 16 16 16 15 15 15 15 15 15 15 15 15 15
19 19 18 18 18 18 18 18 18 18 18 18 18 17 17 17 17 17 17 17 17 16 16 16 16 16 16 16 16 16 15 15 15 15 15 15 15 15 14 14 14 14 14
19 19 19 19 18 18 18 18 18 18 18 18 18 17 17 17 16 16 16 16 16 16 16 16 16 16 16 16 15 15 15 15 15 15 15 15 14 14 14 14 14 14 14
19 19 19 18 18 18 18 18 18 18 18 17 17 17 17 17 16 16 16 16 16 16 15 15 15 15 15 15 15 15 15 15 15 15 15 14 14 14 14 14 14 14 14
18 18 18 18 18 18 18 18 18 17 17 17 17 17 17 17 17 16 15 15 15 15 15 15 15 15 15 15 15 15 15 15 15 14 14 14 14 14 14 14 14 14 13
18 18 18 18 18 18 18 18 18 17 17 17 17 17 17 17 17 16 16 15 15 15 15 15 15 15 15 15 15 15 14 14 14 14 14 14 14 13 13 13 13 13 13
19 18 18 18 18 18 18 17 17 17 17 17 17 17 17 17 17 16 16 15 15 14 14 14 14 14 14 14 14 14 14 14 14 14 14 14 13 13 13 13 13 13 12
19 18 18 18 18 18 18 17 17 17 17 17 17 17 17 17 16 16 16 16 15 14 14 14 14 14 14 14 14 14 14 14 14 14 14 13 13 13 13 13 12 12 12
19 18 18 18 18 18 17 17 17 17 17 17 17 16 16 16 16 16 16 16 15 14 14 14 14 14 14 14 14 14 13 13 13 13 13 13 13 13 13 12 12 12 12
19 19 18 18 18 18 17 17 17 17 17 17 16 16 16 16 16 16 16 16 15 15 14 14 14 13 13 13 13 13 13 13 13 13 13 13 13 13 12 12 12 12 12
19 18 18 18 18 18 17 17 17 17 17 17 16 16 16 16 16 16 16 15 15 15 15 14 13 13 13 13 13 13 13 13 13 12 12 12 12 12 12 12 12 12 11
19 18 18 18 18 17 17 17 16 16 16 16 16 16 16 16 15 15 15 15 15 15 15 14 13 13 13 13 13 12 12 12 12 12 12 12 12 12 12 12 11 11 11
19 18 18 18 17 17 17 16 16 16 16 16 16 16 15 15 15 15 15 15 15 14 14 14 13 13 13 12 12 12 12 12 12 11 11 11 11 11 11 11 11 11 11
19 18 18 18 17 17 17 16 16 16 16 16 15 15 15 15 15 15 15 15 14 14 14 14 13 13 12 12 12 12 12 11 11 11 11 11 11 11 11 11 10 10 10
19 18 18 17 17 17 16 16 16 16 15 15 15 15 15 15 15 15 15 14 14 14 14 13 13 12 12 12 12 12 11 11 11 11 11 11 11 11 11 10 10 10 10
18 18 18 17 17 17 16 16 16 15 15 15 15 15 15 15 15 14 14 14 14 14 14 13 13 13 12 12 12 12 11 11 11 11 11 11 10 10 10 10 10 10 10
18 18 17 17 17 17 16 16 15 15 15 15 15 15 15 15 15 15 14 14 14 14 14 13 13 13 13 12 12 12 11 11 11 11 11 10 10 10 10 10 10 10 10
18 18 17 17 17 17 16 16 15 15 15 15 15 14 14 14 14 14 14 14 14 13 13 13 13 13 12 12 12 12 12 11 11 10 10 10 10 10 10 10 10 10 9
18 17 17 17 17 16 16 15 15 15 15 15 14 14 14 14 14 14 13 13 13 13 13 13 12 12 12 12 12 11 11 11 10 10 10 10 10 10 10 10 10 9 9
18 17 17 17 16 16 16 15 15 15 15 14 14 14 14 14 14 13 13 13 13 13 12 12 12 12 12 12 11 11 11 11 11 10 10 10 10 10 10 10 10 10 9
Wind_Speed
3 3 2 3 4 5 4 3 3 3 3 3 4 4 4 8 10 11 12 17 17 16 16 15 14 14 14 13 13 12 12 12 12 12 12 12 12 11 11 11 10 10 9
4 3 3 2 3 4 5 4 4 3 2 2 2 3 4 7 9 10 11 14 16 16 15 15 15 14 14 14 13 13 13 12 12 12 12 11 11 11 11 10 10 10 10
5 4 3 2 3 4 4 3 2 1 1 1 1 1 3 5 7 9 10 11 12 14 14 14 14 14 14 13 14 13 13 12 12 12 12 11 11 11 10 10 8 8 8
6 4 2 2 2 2 2 2 1 1 1 1 1 1 1 2 4 6 7 8 9 9 11 12 13 13 12 12 12 12 12 11 11 11 11 11 11 11 10 9 8 8 8
5 4 2 2 2 1 1 1 1 2 1 1 1 1 1 2 3 4 5 6 7 7 8 9 10 10 10 10 11 10 10 10 10 10 10 9 9 9 9 9 9 8 8
5 4 2 2 2 1 1 1 1 1 2 2 2 2 1 1 2 3 4 4 6 6 6 6 6 7 9 8 9 10 10 10 10 10 10 9 9 8 8 8 8 8 8
4 3 2 2 2 2 2 2 1 1 1 2 2 2 2 2 2 1 2 2 3 4 5 5 5 4 5 7 7 8 9 9 9 9 9 8 8 7 8 7 7 6 7
4 3 3 2 2 2 1 1 2 2 1 2 3 2 1 2 2 1 1 2 2 2 3 4 4 4 3 2 4 6 7 7 8 8 8 7 6 6 6 6 6 6 6
3 3 3 2 2 2 2 1 2 3 2 1 2 3 3 2 0 2 2 2 2 2 2 3 3 3 3 2 2 3 5 6 7 7 7 7 6 6 6 5 5 5 5
3 3 2 2 2 2 2 2 2 2 3 2 1 1 2 4 3 1 1 2 2 2 2 2 3 3 4 3 3 3 3 4 5 5 5 6 6 5 5 5 5 5 4
1 2 2 2 2 2 2 2 2 2 2 2 2 1 1 1 2 3 2 0 2 2 2 2 2 3 4 4 4 4 4 4 5 5 5 5 6 5 5 5 5 6 6
0 1 2 2 2 2 2 2 2 2 2 1 2 2 2 2 2 3 3 2 1 1 2 2 2 3 4 4 4 5 5 5 6 6 6 5 5 5 5 5 6 7 8
1 1 1 1 1 2 2 2 2 2 1 1 1 2 2 2 3 3 4 2 1 1 1 1 1 3 4 5 5 6 6 7 7 7 7 7 6 6 6 7 9 9 9
3 3 2 2 2 2 2 2 2 1 1 0 0 1 1 1 2 3 4 4 3 1 1 1 1 3 5 6 6 7 8 8 9 9 9 8 8 8 9 10 11 10 9
3 3 3 2 2 2 2 2 1 0 1 1 1 1 0 0 1 2 4 5 5 3 1 1 1 1 5 7 7 8 9 10 10 10 10 10 10 11 11 11 11 11 10
3 4 3 2 2 2 2 2 1 0 1 0 1 1 1 0 1 2 3 3 3 4 3 1 1 2 4 6 7 9 9 10 11 11 11 10 11 11 11 11 11 11 10
4 4 3 3 3 2 2 2 1 1 2 1 1 2 1 1 1 1 2 3 3 4 4 2 2 3 3 4 6 8 8 8 9 10 10 10 10 10 10 11 10 9 8
4 4 4 3 3 2 2 2 1 2 2 2 1 2 1 2 2 1 2 3 3 3 5 5 3 2 3 4 5 5 6 7 7 8 9 9 9 10 10 10 9 9 8
4 4 4 4 3 3 2 2 2 2 2 2 2 2 2 3 2 2 3 3 3 4 4 6 4 2 2 4 4 4 4 4 5 6 7 7 8 8 8 8 8 8 7
5 5 4 4 3 3 3 2 2 3 2 2 2 2 2 2 2 3 3 4 5 6 6 6 5 3 3 3 4 4 3 2 2 3 4 5 6 6 6 6 7 7 7
6 5 5 4 4 3 3 3 2 3 3 3 2 1 1 3 4 3 4 5 6 6 6 6 5 3 3 4 4 3 3 2 1 1 2 2 3 3 3 4 5 6 6
5 5 5 5 4 3 4 5 3 2 3 3 3 1 1 2 3 5 6 8 9 9 8 6 4 5 4 4 4 4 4 3 1 2 3 1 2 2 4 5 6 7 7
6 6 5 5 4 4 5 6 5 4 3 3 3 3 3 3 4 4 5 6 5 7 9 8 7 7 6 7 7 5 4 4 3 4 4 2 2 3 5 6 9 10 9
7 6 6 6 5 5 6 7 6 4 3 2 3 4 4 3 4 6 5 4 3 3 4 5 7 6 7 6 7 7 6 4 2 2 4 3 2 2 4 6 10 11 12
6 5 6 6 5 4 6 7 6 3 2 2 1 3 4 4 5 8 6 5 3 1 3 5 6 8 10 11 10 6 5 4 2 2 3 3 3 2 2 3 9 12 13
6 7 6 6 6 5 6 8 7 3 3 2 1 1 4 5 7 8 6 6 5 3 3 3 3 4 6 9 11 7 7 5 3 3 3 3 2 2 1 2 4 7 10
Wind_Direction
158 170 181 185 193 195 192 195 225 243 244 241 224 182 162 158 161 167 179 184 183 182 184 186 188 189 191 192 192 194 195 197 197 198 202 205 205 207 207 209 207 208 210
158 156 157 177 194 190 189 195 203 206 209 191 184 159 157 155 163 172 177 185 189 190 192 193 195 198 200 201 201 202 201 201 200 202 204 207 208 211 211 214 216 216 215
160 156 153 179 202 192 184 182 191 173 162 135 133 113 134 152 163 175 177 182 189 195 199 201 202 205 206 206 207 207 207 207 206 207 207 208 210 211 212 212 212 209 211
158 152 151 181 187 169 163 157 147 124 118 113 114 120 124 136 156 168 174 185 184 191 201 204 204 207 207 206 205 204 204 205 204 205 208 210 211 210 210 210 208 210 214
164 158 161 188 171 139 141 172 138 151 148 145 154 142 127 140 157 154 157 169 174 182 191 200 205 207 210 211 206 203 202 202 205 204 201 201 205 207 210 211 213 214 213
170 159 161 170 156 131 144 146 150 147 158 158 126 94 88 133 136 149 164 162 174 181 185 184 192 202 209 207 207 204 202 200 202 203 203 202 205 208 209 211 215 215 214
164 155 161 155 148 158 190 181 162 144 146 127 98 68 35 45 96 126 156 149 161 174 180 184 181 188 210 211 206 203 205 204 203 201 201 202 205 208 209 209 207 204 206
171 167 159 169 160 162 167 164 147 154 192 158 139 125 83 13 29 50 99 125 134 124 141 168 161 170 186 185 194 202 203 202 203 199 192 190 194 198 197 196 198 201 201
181 175 169 166 171 165 183 198 168 165 187 221 170 153 159 194 233 14 44 77 95 106 113 114 139 155 161 160 170 197 203 205 209 210 201 192 195 197 188 183 181 179 183
175 169 160 157 164 163 176 199 170 172 162 194 240 209 175 159 162 157 21 38 69 85 105 115 103 109 124 121 130 141 165 191 195 193 184 183 186 187 187 187 176 162 159
178 160 152 151 159 158 165 163 143 153 161 179 196 194 148 131 141 158 192 174 56 50 88 111 101 94 104 118 125 134 147 166 170 167 168 172 172 171 172 169 165 155 139
181 158 135 151 166 158 159 166 163 155 164 171 195 187 177 175 175 163 178 176 146 56 63 84 97 90 90 99 123 130 132 128 127 127 127 132 137 140 141 142 140 130 123
191 203 167 165 164 172 165 148 142 147 164 188 211 205 195 202 176 158 152 157 147 144 83 67 70 95 96 93 104 116 109 114 116 117 120 122 123 123 121 119 119 116 112
192 185 158 143 140 139 140 129 128 158 147 156 169 174 200 220 178 163 159 152 144 139 97 106 59 87 100 98 102 109 106 109 113 114 119 119 116 112 112 112 110 109 106
176 159 146 136 132 125 129 123 111 142 125 129 128 106 107 267 175 173 162 162 159 166 190 155 123 111 116 106 107 107 105 106 107 109 113 116 116 113 112 111 110 107 103
159 144 137 128 114 100 105 111 107 55 92 57 113 78 46 3 135 147 158 163 158 155 161 156 152 151 131 118 110 108 109 108 106 108 113 116 119 118 117 116 116 114 111
150 144 135 125 119 107 101 106 127 101 98 65 56 76 54 76 88 131 143 139 132 129 135 116 96 123 116 120 112 106 104 103 107 111 115 116 118 120 122 121 119 119 119
147 142 136 125 122 111 105 113 114 103 103 95 69 67 44 74 70 96 130 129 130 127 135 138 134 128 123 136 126 119 115 110 112 116 119 119 120 120 122 124 125 126 126
143 134 129 130 125 119 114 125 137 135 123 117 106 96 85 90 84 93 116 121 121 118 117 138 142 128 120 135 120 116 111 106 117 122 122 122 124 126 129 131 132 130 131
148 145 144 142 136 126 123 121 120 118 106 104 105 110 111 126 137 131 127 127 122 116 120 130 133 130 123 127 129 130 116 98 121 127 125 133 139 140 143 144 145 145 144
157 154 147 143 146 142 146 140 136 131 125 110 91 83 111 138 147 148 146 144 137 132 134 135 139 133 140 151 166 159 146 133 90 137 119 141 147 154 173 182 179 175 169
157 153 155 156 157 164 156 151 140 131 141 142 140 131 123 112 127 132 136 143 150 152 155 153 156 165 174 173 161 161 151 147 193 214 150 192 167 203 221 211 205 200 196
163 161 160 158 167 178 166 161 154 142 143 156 164 166 161 143 135 131 129 123 133 153 160 161 166 178 178 181 169 168 172 169 190 189 152 201 215 228 234 225 218 213 210
171 173 172 172 175 185 172 166 157 141 137 140 162 170 160 154 154 146 137 121 114 128 156 158 172 184 181 176 177 175 172 156 136 165 157 182 214 226 240 232 228 221 219
175 175 177 179 182 193 181 172 155 141 146 147 168 167 158 157 165 152 140 135 126 116 136 155 168 174 174 170 163 143 142 142 167 216 188 171 198 209 242 246 238 229 224
178 176 182 186 186 193 191 179 165 156 165 178 173 171 168 165 167 162 154 154 158 177 158 138 134 151 162 170 171 169 168 164 163 206 205 172 187 164 245 264 237 228 225
Height
1549 1549 1550 1551 1552 1553 1554 1554 1555 1556 1556 1556 1556 1557 1557 1557 1558 1558 1558 1559 1559 1560 1560 1560 1561 1561 1561 1562 1562 1563 1564 1564 1565 1566 1566 1567 1567 1568 1568 1569 1569 1570 1570
1550 1550 1551 1552 1552 1553 1553 1554 1555 1555 1556 1556 1556 1556 1557 1557 1558 1558 1558 1558 1559 1559 1559 1560 1560 1560 1560 1561 1561 1562 1562 1563 1564 1564 1565 1565 1566 1566 1567 1567 1568 1568 1568
1551 1551 1551 1552 1552 1553 1553 1554 1554 1555 1555 1555 1555 1556 1556 1557 1557 1557 1557 1557 1558 1558 1558 1558 1559 1559 1559 1559 1560 1560 1561 1561 1562 1563 1563 1564 1564 1565 1565 1565 1566 1566 1566
1551 1551 1551 1552 1552 1552 1553 1553 1553 1553 1554 1554 1554 1555 1555 1555 1555 1556 1556 1556 1556 1556 1557 1557 1557 1557 1558 1558 1558 1558 1559 1559 1560 1561 1561 1562 1562 1563 1563 1563 1564 1564 1564
1550 1550 1551 1551 1551 1552 1552 1552 1552 1552 1552 1553 1553 1553 1553 1553 1553 1554 1553 1553 1554 1554 1554 1555 1555 1555 1555 1556 1556 1557 1557 1557 1558 1558 1558 1559 1560 1560 1561 1561 1561 1562 1562
1550 1550 1550 1550 1550 1551 1551 1551 1551 1551 1551 1551 1552 1552 1552 1552 1552 1551 1551 1552 1552 1552 1552 1553 1553 1553 1553 1554 1554 1554 1555 1555 1555 1556 1556 1557 1557 1558 1558 1559 1559 1559 1560
1549 1549 1549 1549 1549 1549 1549 1549 1549 1549 1549 1550 1550 1550 1550 1550 1550 1549 1550 1549 1550 1550 1550 1550 1551 1551 1551 1551 1552 1552 1552 1552 1553 1553 1554 1554 1555 1556 1556 1556 1557 1557 1557
1548 1548 1547 1548 1548 1548 1548 1547 1547 1547 1547 1548 1548 1548 1548 1549 1548 1548 1548 1548 1548 1548 1548 1548 1548 1549 1549 1549 1549 1550 1550 1550 1550 1551 1551 1552 1552 1553 1554 1554 1554 1555 1555
1547 1547 1546 1546 1546 1546 1545 1545 1545 1545 1545 1545 1546 1546 1546 1546 1547 1547 1546 1546 1546 1546 1546 1546 1546 1546 1546 1546 1547 1547 1548 1548 1548 1548 1549 1550 1550 1551 1551 1551 1552 1552 1552
1546 1546 1545 1545 1544 1544 1544 1543 1543 1543 1543 1542 1543 1544 1544 1544 1544 1544 1545 1545 1545 1544 1545 1544 1544 1544 1544 1545 1545 1545 1545 1546 1546 1546 1546 1547 1547 1548 1549 1549 1549 1549 1549
1545 1545 1544 1543 1543 1542 1542 1541 1541 1541 1540 1540 1540 1540 1541 1541 1542 1542 1542 1543 1543 1543 1543 1543 1543 1542 1542 1543 1543 1543 1543 1544 1544 1544 1544 1545 1545 1546 1546 1547 1547 1547 1547
1544 1543 1543 1542 1541 1541 1540 1540 1539 1539 1538 1538 1538 1538 1538 1538 1539 1539 1539 1540 1540 1541 1541 1541 1541 1541 1541 1541 1541 1542 1542 1542 1542 1543 1543 1543 1543 1544 1544 1545 1545 1546 1546
1542 1542 1542 1541 1540 1540 1539 1538 1538 1537 1537 1536 1536 1536 1536 1536 1536 1537 1537 1537 1538 1539 1540 1540 1540 1540 1540 1540 1540 1541 1541 1540 1541 1541 1541 1541 1542 1542 1543 1543 1544 1545 1545
1541 1541 1541 1540 1539 1538 1538 1537 1536 1535 1535 1534 1534 1534 1534 1534 1534 1534 1534 1535 1536 1537 1538 1538 1539 1539 1539 1539 1539 1540 1540 1539 1540 1540 1540 1540 1540 1541 1541 1541 1543 1544 1544
1540 1540 1540 1539 1538 1537 1536 1535 1534 1534 1533 1533 1532 1532 1532 1532 1532 1532 1532 1533 1534 1534 1536 1536 1537 1537 1538 1538 1538 1539 1539 1539 1539 1539 1539 1540 1540 1540 1541 1542 1543 1543 1544
1539 1539 1538 1538 1537 1536 1535 1534 1533 1532 1532 1531 1531 1530 1530 1530 1530 1530 1530 1531 1532 1532 1533 1534 1535 1536 1537 1537 1538 1538 1538 1539 1539 1539 1539 1540 1540 1540 1541 1541 1542 1543 1543
1537 1537 1537 1536 1535 1534 1533 1533 1532 1531 1530 1530 1529 1529 1528 1528 1528 1528 1529 1529 1530 1531 1531 1532 1533 1535 1536 1537 1537 1538 1538 1538 1539 1539 1540 1540 1541 1541 1541 1542 1542 1543 1543
1536 1536 1536 1535 1534 1533 1532 1531 1530 1530 1529 1528 1528 1527 1527 1527 1527 1527 1528 1528 1528 1529 1530 1530 1532 1533 1535 1536 1537 1538 1538 1539 1539 1540 1540 1540 1541 1541 1541 1542 1542 1542 1543
1534 1534 1534 1533 1533 1532 1531 1530 1529 1528 1527 1527 1526 1526 1526 1526 1526 1526 1527 1527 1527 1528 1529 1529 1530 1532 1533 1535 1536 1537 1538 1538 1539 1540 1540 1541 1541 1541 1542 1542 1542 1542 1543
1532 1532 1532 1532 1531 1530 1529 1529 1528 1527 1526 1526 1525 1525 1525 1525 1525 1525 1526 1526 1526 1527 1528 1529 1530 1531 1533 1534 1535 1536 1537 1538 1539 1540 1540 1541 1541 1542 1542 1542 1542 1543 1543
1530 1530 1530 1530 1529 1529 1528 1528 1527 1526 1526 1525 1524 1524 1524 1524 1524 1525 1525 1525 1526 1526 1527 1528 1529 1530 1531 1532 1534 1535 1536 1537 1538 1539 1540 1540 1541 1541 1542 1542 1542 1542 1542
1528 1528 1528 1528 1527 1527 1527 1526 1526 1526 1525 1524 1524 1523 1523 1523 1523 1524 1524 1525 1525 1526 1526 1527 1527 1528 1530 1531 1533 1534 1535 1536 1537 1539 1539 1540 1540 1540 1541 1541 1542 1542 1542
1525 1525 1525 1526 1526 1526 1525 1525 1525 1525 1524 1523 1522 1522 1522 1522 1523 1523 1524 1524 1525 1525 1526 1527 1527 1528 1529 1530 1531 1532 1533 1534 1535 1537 1538 1538 1539 1539 1540 1540 1541 1541 1541
1522 1522 1522 1523 1523 1523 1523 1523 1523 1523 1523 1523 1522 1522 1521 1522 1522 1522 1523 1523 1524 1524 1525 1526 1527 1528 1529 1529 1530 1532 1533 1534 1535 1536 1537 1537 1538 1538 1539 1539 1540 1540 1540
1519 1519 1520 1520 1520 1521 1521 1522 1522 1522 1522 1521 1521 1521 1521 1521 1521 1522 1522 1522 1523 1523 1524 1525 1526 1527 1528 1529 1529 1530 1531 1532 1533 1534 1535 1536 1536 1536 1537 1537 1538 1538 1538
1516 1516 1516 1517 1518 1518 1519 1520 1520 1520 1520 1520 1520 1520 1520 1520 1521 1521 1521 1521 1522 1522 1523 1524 1525 1526 1526 1527 1528 1529 1530 1531 1531 1532 1533 1534 1534 1535 1535 1535 1535 1536 1536